Location: Gorze? G�rny
(49.8500°N, 19.5000°E)
Time: 03:42:20
(UTC+00:00)

CARTOSAT-1 - Pass Details

Date: 13 May 2021
Orbit: 616 x 618 km, 97.8° (Epoch: 20 June)

Event Time Altitude Azimuth Distance (km) Brightness Sun altitude
Exits shadow 19:52:45 17° 160° (SSE) 1,579 5.1 -12.4°
Maximum altitude 19:56:04 81° 75° (ENE) 634 3.5 -12.7°
Drops below altitude 10° 20:00:25 10° 348° (NNW) 1,994 7.2 -13.2°
Sets 20:02:37 0° 348° (NNW) 2,904 8.3 -13.4°
